Wetterdaten: Freitag, 11.12.2015
Datum Zeit Temp. A. Feuchte A. Luftdruck Regen Wind Richtung Richtung Sonnenschein ET UV Solar Taupunkt Windchill Windben Empfang
11.12.2015 00:00 1,7 C 94 % 1033,2 hPa 0,0 l/m 1,3 km/h (1 Bft) N-NO 25 0 min 0,000 mm 0,0 UV-I 0 W/m 0,8 C 1,7 C 4,8 km/h (1 Bft) 100,00 %
11.12.2015 00:05 1,7 C 94 % 1033,1 hPa 0,0 l/m 1,7 km/h (1 Bft) NO 38 0 min 0,000 mm 0,0 UV-I 0 W/m 0,8 C 1,7 C 8,0 km/h (2 Bft) 97,44 %
11.12.2015 00:10 1,7 C 94 % 1033,1 hPa 0,0 l/m 2,7 km/h (1 Bft) NO 42 0 min 0,000 mm 0,0 UV-I 0 W/m 0,8 C 1,7 C 6,4 km/h (2 Bft) 99,12 %
11.12.2015 00:15 1,6 C 94 % 1033,1 hPa 0,0 l/m 5,7 km/h (1 Bft) O-NO 61 0 min 0,000 mm 0,0 UV-I 0 W/m 0,7 C 1,6 C 9,7 km/h (2 Bft) 99,08 %
11.12.2015 00:20 1,6 C 93 % 1033,0 hPa 0,0 l/m 6,3 km/h (2 Bft) NO 37 0 min 0,000 mm 0,0 UV-I 0 W/m 0,6 C 1,6 C 8,0 km/h (2 Bft) 98,39 %
11.12.2015 00:25 1,5 C 94 % 1033,1 hPa 0,0 l/m 6,8 km/h (2 Bft) O-NO 71 0 min 0,000 mm 0,0 UV-I 0 W/m 0,6 C 1,1 C 11,3 km/h (2 Bft) 98,25 %
11.12.2015 00:30 1,4 C 93 % 1032,9 hPa 0,0 l/m 2,2 km/h (1 Bft) O 94 0 min 0,000 mm 0,0 UV-I 0 W/m 0,4 C 1,4 C 8,0 km/h (2 Bft) 98,26 %
11.12.2015 00:35 1,3 C 93 % 1032,9 hPa 0,0 l/m 2,5 km/h (1 Bft) SO 129 0 min 0,000 mm 0,0 UV-I 0 W/m 0,3 C 1,3 C 4,8 km/h (1 Bft) 100,00 %
11.12.2015 00:40 1,3 C 93 % 1032,9 hPa 0,0 l/m 2,3 km/h (1 Bft) S-SO 156 0 min 0,000 mm 0,0 UV-I 0 W/m 0,3 C 1,3 C 6,4 km/h (2 Bft) 97,56 %
11.12.2015 00:45 1,3 C 93 % 1032,9 hPa 0,0 l/m 1,3 km/h (1 Bft) S-SO 153 0 min 0,000 mm 0,0 UV-I 0 W/m 0,3 C 1,3 C 4,8 km/h (1 Bft) 98,21 %
11.12.2015 00:50 1,3 C 93 % 1032,9 hPa 0,0 l/m 0,9 km/h (0 Bft) S-SO 148 0 min 0,000 mm 0,0 UV-I 0 W/m 0,3 C 1,3 C 3,2 km/h (1 Bft) 99,19 %
11.12.2015 00:55 1,3 C 94 % 1032,9 hPa 0,0 l/m 2,3 km/h (1 Bft) NO 53 0 min 0,000 mm 0,0 UV-I 0 W/m 0,4 C 1,3 C 6,4 km/h (2 Bft) 100,00 %
11.12.2015 01:00 1,3 C 94 % 1032,9 hPa 0,0 l/m 3,6 km/h (1 Bft) NO 36 0 min 0,000 mm 0,0 UV-I 0 W/m 0,4 C 1,3 C 6,4 km/h (2 Bft) 99,17 %
11.12.2015 01:05 1,3 C 94 % 1033,0 hPa 0,0 l/m 0,7 km/h (0 Bft) N-NO 32 0 min 0,000 mm 0,0 UV-I 0 W/m 0,4 C 1,3 C 3,2 km/h (1 Bft) 99,19 %
11.12.2015 01:10 1,3 C 94 % 1033,1 hPa 0,0 l/m 0,1 km/h (0 Bft) N-NO 32 0 min 0,000 mm 0,0 UV-I 0 W/m 0,4 C 1,3 C 1,6 km/h (1 Bft) 100,00 %
11.12.2015 01:15 1,3 C 94 % 1032,9 hPa 0,0 l/m 0,0 km/h (0 Bft) N-NO 32 0 min 0,000 mm 0,0 UV-I 0 W/m 0,4 C 1,3 C 0,0 km/h (0 Bft) 98,26 %
11.12.2015 01:20 1,3 C 94 % 1032,9 hPa 0,0 l/m 0,0 km/h (0 Bft) N-NO 32 0 min 0,000 mm 0,0 UV-I 0 W/m 0,4 C 1,3 C 0,0 km/h (0 Bft) 99,19 %
11.12.2015 01:25 1,3 C 93 % 1032,9 hPa 0,0 l/m 1,0 km/h (0 Bft) N-NO 32 0 min 0,000 mm 0,0 UV-I 0 W/m 0,3 C 1,3 C 3,2 km/h (1 Bft) 98,26 %
11.12.2015 01:30 1,3 C 92 % 1033,0 hPa 0,0 l/m 1,0 km/h (0 Bft) SO 145 0 min 0,000 mm 0,0 UV-I 0 W/m 0,1 C 1,3 C 3,2 km/h (1 Bft) 100,00 %
11.12.2015 01:35 1,3 C 94 % 1032,9 hPa 0,0 l/m 0,7 km/h (0 Bft) SO 145 0 min 0,000 mm 0,0 UV-I 0 W/m 0,4 C 1,3 C 3,2 km/h (1 Bft) 99,11 %
11.12.2015 01:40 1,2 C 93 % 1032,9 hPa 0,0 l/m 3,0 km/h (1 Bft) S-SW 200 0 min 0,000 mm 0,0 UV-I 0 W/m 0,2 C 1,2 C 6,4 km/h (2 Bft) 97,58 %
11.12.2015 01:45 1,2 C 93 % 1032,9 hPa 0,0 l/m 3,7 km/h (1 Bft) S-SW 212 0 min 0,000 mm 0,0 UV-I 0 W/m 0,2 C 1,2 C 6,4 km/h (2 Bft) 93,69 %
11.12.2015 01:50 1,2 C 93 % 1032,8 hPa 0,0 l/m 1,1 km/h (1 Bft) S-SW 212 0 min 0,000 mm 0,0 UV-I 0 W/m 0,2 C 1,2 C 3,2 km/h (1 Bft) 96,23 %
11.12.2015 01:55 1,2 C 93 % 1032,9 hPa 0,0 l/m 1,7 km/h (1 Bft) S-SW 212 0 min 0,000 mm 0,0 UV-I 0 W/m 0,2 C 1,2 C 3,2 km/h (1 Bft) 95,65 %
11.12.2015 02:00 1,2 C 93 % 1032,9 hPa 0,0 l/m 2,1 km/h (1 Bft) S-SW 213 0 min 0,000 mm 0,0 UV-I 0 W/m 0,2 C 1,2 C 6,4 km/h (2 Bft) 96,21 %
11.12.2015 02:05 1,2 C 93 % 1032,8 hPa 0,0 l/m 1,3 km/h (1 Bft) S 188 0 min 0,000 mm 0,0 UV-I 0 W/m 0,2 C 1,2 C 3,2 km/h (1 Bft) 97,58 %
11.12.2015 02:10 1,2 C 93 % 1032,8 hPa 0,0 l/m 1,2 km/h (1 Bft) S-SO 164 0 min 0,000 mm 0,0 UV-I 0 W/m 0,2 C 1,2 C 4,8 km/h (1 Bft) 98,25 %
11.12.2015 02:15 1,2 C 93 % 1032,8 hPa 0,0 l/m 2,4 km/h (1 Bft) S 183 0 min 0,000 mm 0,0 UV-I 0 W/m 0,2 C 1,2 C 6,4 km/h (2 Bft) 99,13 %
11.12.2015 02:20 1,2 C 93 % 1032,7 hPa 0,0 l/m 0,3 km/h (0 Bft) S 183 0 min 0,000 mm 0,0 UV-I 0 W/m 0,2 C 1,2 C 1,6 km/h (1 Bft) 99,13 %
11.12.2015 02:25 1,2 C 93 % 1032,6 hPa 0,0 l/m 2,1 km/h (1 Bft) S-SO 167 0 min 0,000 mm 0,0 UV-I 0 W/m 0,2 C 1,2 C 6,4 km/h (2 Bft) 99,17 %
11.12.2015 02:30 1,1 C 92 % 1032,5 hPa 0,0 l/m 3,5 km/h (1 Bft) S-SO 155 0 min 0,000 mm 0,0 UV-I 0 W/m -0,1 C 1,1 C 8,0 km/h (2 Bft) 98,31 %
11.12.2015 02:35 1,1 C 92 % 1032,4 hPa 0,0 l/m 2,4 km/h (1 Bft) S-SO 151 0 min 0,000 mm 0,0 UV-I 0 W/m -0,1 C 1,1 C 6,4 km/h (2 Bft) 100,00 %
11.12.2015 02:40 1,1 C 93 % 1032,4 hPa 0,0 l/m 2,7 km/h (1 Bft) S-SW 209 0 min 0,000 mm 0,0 UV-I 0 W/m 0,1 C 1,1 C 8,0 km/h (2 Bft) 98,21 %
11.12.2015 02:45 1,0 C 92 % 1032,4 hPa 0,0 l/m 3,9 km/h (1 Bft) S 191 0 min 0,000 mm 0,0 UV-I 0 W/m -0,2 C 1,0 C 6,4 km/h (2 Bft) 98,35 %
11.12.2015 02:50 0,9 C 92 % 1032,3 hPa 0,0 l/m 0,6 km/h (0 Bft) S 191 0 min 0,000 mm 0,0 UV-I 0 W/m -0,2 C 0,9 C 3,2 km/h (1 Bft) 100,00 %
11.12.2015 02:55 0,9 C 93 % 1032,4 hPa 0,0 l/m 1,1 km/h (1 Bft) S 191 0 min 0,000 mm 0,0 UV-I 0 W/m -0,1 C 0,9 C 3,2 km/h (1 Bft) 98,26 %
11.12.2015 03:00 0,9 C 93 % 1032,3 hPa 0,0 l/m 0,1 km/h (0 Bft) S 191 0 min 0,000 mm 0,0 UV-I 0 W/m -0,1 C 0,9 C 1,6 km/h (1 Bft) 98,26 %
11.12.2015 03:05 0,8 C 94 % 1032,2 hPa 0,0 l/m 3,8 km/h (1 Bft) S 182 0 min 0,000 mm 0,0 UV-I 0 W/m -0,1 C 0,8 C 8,0 km/h (2 Bft) 96,67 %
11.12.2015 03:10 0,8 C 93 % 1032,2 hPa 0,0 l/m 2,9 km/h (1 Bft) SW 236 0 min 0,000 mm 0,0 UV-I 0 W/m -0,2 C 0,8 C 4,8 km/h (1 Bft) 99,19 %
11.12.2015 03:15 0,7 C 93 % 1032,2 hPa 0,0 l/m 1,7 km/h (1 Bft) W-SW 246 0 min 0,000 mm 0,0 UV-I 0 W/m -0,3 C 0,7 C 3,2 km/h (1 Bft) 99,12 %
11.12.2015 03:20 0,7 C 93 % 1032,2 hPa 0,0 l/m 2,0 km/h (1 Bft) W-SW 250 0 min 0,000 mm 0,0 UV-I 0 W/m -0,3 C 0,7 C 4,8 km/h (1 Bft) 100,00 %
11.12.2015 03:25 0,6 C 94 % 1032,3 hPa 0,0 l/m 1,9 km/h (1 Bft) NW 306 0 min 0,000 mm 0,0 UV-I 0 W/m -0,3 C 0,6 C 4,8 km/h (1 Bft) 96,92 %
11.12.2015 03:30 0,6 C 94 % 1032,2 hPa 0,0 l/m 0,0 km/h (0 Bft) NW 306 0 min 0,000 mm 0,0 UV-I 0 W/m -0,3 C 0,6 C 1,6 km/h (1 Bft) 99,10 %
11.12.2015 03:35 0,6 C 94 % 1032,2 hPa 0,0 l/m 2,0 km/h (1 Bft) SW 220 0 min 0,000 mm 0,0 UV-I 0 W/m -0,3 C 0,6 C 4,8 km/h (1 Bft) 100,00 %
11.12.2015 03:40 0,6 C 94 % 1032,2 hPa 0,0 l/m 2,5 km/h (1 Bft) SW 221 0 min 0,000 mm 0,0 UV-I 0 W/m -0,3 C 0,6 C 4,8 km/h (1 Bft) 100,00 %
11.12.2015 03:45 0,6 C 94 % 1032,0 hPa 0,0 l/m 0,8 km/h (0 Bft) W-SW 256 0 min 0,000 mm 0,0 UV-I 0 W/m -0,3 C 0,6 C 4,8 km/h (1 Bft) 96,15 %
11.12.2015 03:50 0,5 C 94 % 1032,0 hPa 0,0 l/m 2,2 km/h (1 Bft) SW 223 0 min 0,000 mm 0,0 UV-I 0 W/m -0,4 C 0,5 C 6,4 km/h (2 Bft) 95,54 %
11.12.2015 03:55 0,5 C 93 % 1032,0 hPa 0,0 l/m 0,6 km/h (0 Bft) NO 42 0 min 0,000 mm 0,0 UV-I 0 W/m -0,5 C 0,5 C 4,8 km/h (1 Bft) 96,61 %
11.12.2015 04:00 0,4 C 93 % 1031,8 hPa 0,0 l/m 2,7 km/h (1 Bft) NO 42 0 min 0,000 mm 0,0 UV-I 0 W/m -0,6 C 0,4 C 4,8 km/h (1 Bft) 96,58 %
11.12.2015 04:05 0,4 C 93 % 1031,9 hPa 0,0 l/m 1,2 km/h (1 Bft) NW 326 0 min 0,000 mm 0,0 UV-I 0 W/m -0,6 C 0,4 C 4,8 km/h (1 Bft) 96,00 %
11.12.2015 04:10 0,4 C 93 % 1032,1 hPa 0,0 l/m 0,4 km/h (0 Bft) NW 326 0 min 0,000 mm 0,0 UV-I 0 W/m -0,6 C 0,4 C 1,6 km/h (1 Bft) 97,56 %
11.12.2015 04:15 0,4 C 94 % 1032,0 hPa 0,0 l/m 2,1 km/h (1 Bft) W-SW 257 0 min 0,000 mm 0,0 UV-I 0 W/m -0,5 C 0,4 C 6,4 km/h (2 Bft) 96,69 %
11.12.2015 04:20 0,4 C 94 % 1032,0 hPa 0,0 l/m 4,5 km/h (1 Bft) S 186 0 min 0,000 mm 0,0 UV-I 0 W/m -0,5 C 0,4 C 8,0 km/h (2 Bft) 100,00 %
11.12.2015 04:25 0,3 C 94 % 1032,0 hPa 0,0 l/m 2,4 km/h (1 Bft) S-SW 196 0 min 0,000 mm 0,0 UV-I 0 W/m -0,5 C 0,3 C 6,4 km/h (2 Bft) 99,16 %
11.12.2015 04:30 0,3 C 93 % 1031,9 hPa 0,0 l/m 2,4 km/h (1 Bft) S-SW 204 0 min 0,000 mm 0,0 UV-I 0 W/m -0,7 C 0,3 C 3,2 km/h (1 Bft) 100,00 %
11.12.2015 04:35 0,3 C 94 % 1031,8 hPa 0,0 l/m 2,3 km/h (1 Bft) S 173 0 min 0,000 mm 0,0 UV-I 0 W/m -0,5 C 0,3 C 6,4 km/h (2 Bft) 98,33 %
11.12.2015 04:40 0,3 C 93 % 1031,9 hPa 0,0 l/m 1,7 km/h (1 Bft) S-SO 167 0 min 0,000 mm 0,0 UV-I 0 W/m -0,7 C 0,3 C 6,4 km/h (2 Bft) 100,00 %
11.12.2015 04:45 0,2 C 94 % 1031,8 hPa 0,0 l/m 1,9 km/h (1 Bft) S-SO 167 0 min 0,000 mm 0,0 UV-I 0 W/m -0,6 C 0,2 C 4,8 km/h (1 Bft) 99,15 %
11.12.2015 04:50 0,2 C 94 % 1031,8 hPa 0,0 l/m 1,7 km/h (1 Bft) S-SO 166 0 min 0,000 mm 0,0 UV-I 0 W/m -0,6 C 0,2 C 6,4 km/h (2 Bft) 98,41 %
11.12.2015 04:55 0,2 C 94 % 1031,7 hPa 0,0 l/m 2,4 km/h (1 Bft) S-SO 155 0 min 0,000 mm 0,0 UV-I 0 W/m -0,6 C 0,2 C 6,4 km/h (2 Bft) 99,13 %
11.12.2015 05:00 0,1 C 94 % 1031,7 hPa 0,0 l/m 4,6 km/h (1 Bft) O-SO 117 0 min 0,000 mm 0,0 UV-I 0 W/m -0,7 C 0,1 C 9,7 km/h (2 Bft) 99,11 %
11.12.2015 05:05 0,0 C 94 % 1031,7 hPa 0,0 l/m 3,4 km/h (1 Bft) O-SO 112 0 min 0,000 mm 0,0 UV-I 0 W/m -0,8 C 0,0 C 6,4 km/h (2 Bft) 99,19 %
11.12.2015 05:10 -0,1 C 94 % 1031,8 hPa 0,0 l/m 4,6 km/h (1 Bft) O-NO 76 0 min 0,000 mm 0,0 UV-I 0 W/m -0,9 C -0,1 C 8,0 km/h (2 Bft) 100,00 %
11.12.2015 05:15 -0,1 C 94 % 1031,8 hPa 0,0 l/m 4,9 km/h (1 Bft) SO 124 0 min 0,000 mm 0,0 UV-I 0 W/m -0,9 C -0,1 C 11,3 km/h (2 Bft) 100,00 %
11.12.2015 05:20 -0,1 C 94 % 1031,8 hPa 0,0 l/m 3,3 km/h (1 Bft) S-SO 157 0 min 0,000 mm 0,0 UV-I 0 W/m -0,9 C -0,1 C 6,4 km/h (2 Bft) 100,00 %
11.12.2015 05:25 -0,1 C 94 % 1031,7 hPa 0,0 l/m 1,0 km/h (0 Bft) S-SO 159 0 min 0,000 mm 0,0 UV-I 0 W/m -0,9 C -0,1 C 4,8 km/h (1 Bft) 98,17 %
11.12.2015 05:30 -0,2 C 93 % 1031,7 hPa 0,0 l/m 2,1 km/h (1 Bft) S-SO 155 0 min 0,000 mm 0,0 UV-I 0 W/m -1,2 C -0,2 C 6,4 km/h (2 Bft) 99,15 %
11.12.2015 05:35 -0,2 C 94 % 1031,6 hPa 0,0 l/m 1,0 km/h (0 Bft) S-SO 155 0 min 0,000 mm 0,0 UV-I 0 W/m -1,0 C -0,2 C 3,2 km/h (1 Bft) 100,00 %
11.12.2015 05:40 -0,2 C 94 % 1031,5 hPa 0,0 l/m 2,3 km/h (1 Bft) O-SO 115 0 min 0,000 mm 0,0 UV-I 0 W/m -1,0 C -0,2 C 4,8 km/h (1 Bft) 99,11 %
11.12.2015 05:45 -0,2 C 95 % 1031,4 hPa 0,0 l/m 1,6 km/h (1 Bft) SO 129 0 min 0,000 mm 0,0 UV-I 0 W/m -0,9 C -0,2 C 4,8 km/h (1 Bft) 98,41 %
11.12.2015 05:50 -0,3 C 94 % 1031,4 hPa 0,0 l/m 2,2 km/h (1 Bft) S-SO 163 0 min 0,000 mm 0,0 UV-I 0 W/m -1,1 C -0,3 C 6,4 km/h (2 Bft) 96,33 %
11.12.2015 05:55 -0,3 C 95 % 1031,3 hPa 0,0 l/m 1,6 km/h (1 Bft) S 169 0 min 0,000 mm 0,0 UV-I 0 W/m -1,0 C -0,3 C 6,4 km/h (2 Bft) 95,24 %
11.12.2015 06:00 -0,4 C 95 % 1031,3 hPa 0,0 l/m 2,8 km/h (1 Bft) S 171 0 min 0,000 mm 0,0 UV-I 0 W/m -1,1 C -0,4 C 6,4 km/h (2 Bft) 97,39 %
11.12.2015 06:05 -0,5 C 94 % 1031,4 hPa 0,0 l/m 4,0 km/h (1 Bft) S-SW 192 0 min 0,000 mm 0,0 UV-I 0 W/m -1,3 C -0,5 C 8,0 km/h (2 Bft) 97,32 %
11.12.2015 06:10 -0,7 C 94 % 1031,5 hPa 0,0 l/m 4,0 km/h (1 Bft) S-SO 165 0 min 0,000 mm 0,0 UV-I 0 W/m -1,5 C -0,7 C 8,0 km/h (2 Bft) 94,87 %
11.12.2015 06:15 -0,8 C 94 % 1031,5 hPa 0,0 l/m 2,4 km/h (1 Bft) S-SO 162 0 min 0,000 mm 0,0 UV-I 0 W/m -1,6 C -0,8 C 6,4 km/h (2 Bft) 95,76 %
11.12.2015 06:20 -0,8 C 94 % 1031,5 hPa 0,0 l/m 2,5 km/h (1 Bft) SO 124 0 min 0,000 mm 0,0 UV-I 0 W/m -1,6 C -0,8 C 6,4 km/h (2 Bft) 97,32 %
11.12.2015 06:25 -0,8 C 94 % 1031,5 hPa 0,0 l/m 2,1 km/h (1 Bft) O-SO 123 0 min 0,000 mm 0,0 UV-I 0 W/m -1,6 C -0,8 C 8,0 km/h (2 Bft) 96,83 %
11.12.2015 06:30 -0,9 C 94 % 1031,5 hPa 0,0 l/m 2,4 km/h (1 Bft) O 94 0 min 0,000 mm 0,0 UV-I 0 W/m -1,7 C -0,9 C 4,8 km/h (1 Bft) 95,54 %
11.12.2015 06:35 -0,8 C 94 % 1031,7 hPa 0,0 l/m 0,8 km/h (0 Bft) SO 146 0 min 0,000 mm 0,0 UV-I 0 W/m -1,6 C -0,8 C 3,2 km/h (1 Bft) 100,00 %
11.12.2015 06:40 -0,9 C 95 % 1031,6 hPa 0,0 l/m 3,0 km/h (1 Bft) W 264 0 min 0,000 mm 0,0 UV-I 0 W/m -1,6 C -0,9 C 4,8 km/h (1 Bft) 99,13 %
11.12.2015 06:45 -0,9 C 95 % 1031,6 hPa 0,0 l/m 2,0 km/h (1 Bft) W 264 0 min 0,000 mm 0,0 UV-I 0 W/m -1,6 C -0,9 C 3,2 km/h (1 Bft) 97,39 %
11.12.2015 06:50 -0,9 C 95 % 1031,5 hPa 0,0 l/m 2,8 km/h (1 Bft) W-SW 246 0 min 0,000 mm 0,0 UV-I 0 W/m -1,6 C -0,9 C 4,8 km/h (1 Bft) 100,00 %
11.12.2015 06:55 -1,0 C 95 % 1031,5 hPa 0,0 l/m 3,2 km/h (1 Bft) SW 230 0 min 0,000 mm 0,0 UV-I 0 W/m -1,7 C -1,0 C 6,4 km/h (2 Bft) 98,35 %
11.12.2015 07:00 -1,1 C 95 % 1031,6 hPa 0,0 l/m 3,3 km/h (1 Bft) SW 234 0 min 0,000 mm 0,0 UV-I 0 W/m -1,8 C -1,1 C 6,4 km/h (2 Bft) 100,00 %
11.12.2015 07:05 -1,2 C 95 % 1031,6 hPa 0,0 l/m 3,8 km/h (1 Bft) SW 217 0 min 0,000 mm 0,0 UV-I 0 W/m -1,9 C -1,2 C 6,4 km/h (2 Bft) 100,00 %
11.12.2015 07:10 -1,2 C 95 % 1031,7 hPa 0,0 l/m 2,5 km/h (1 Bft) S-SW 213 0 min 0,000 mm 0,0 UV-I 0 W/m -1,9 C -1,2 C 4,8 km/h (1 Bft) 99,19 %
11.12.2015 07:15 -1,3 C 95 % 1031,7 hPa 0,0 l/m 1,1 km/h (1 Bft) S-SO 168 0 min 0,000 mm 0,0 UV-I 0 W/m -2,0 C -1,3 C 4,8 km/h (1 Bft) 100,00 %
11.12.2015 07:20 -1,3 C 95 % 1031,5 hPa 0,0 l/m 2,8 km/h (1 Bft) SO 136 0 min 0,000 mm 0,0 UV-I 0 W/m -2,0 C -1,3 C 6,4 km/h (2 Bft) 100,00 %
11.12.2015 07:25 -1,3 C 95 % 1031,5 hPa 0,0 l/m 4,2 km/h (1 Bft) O-SO 123 0 min 0,000 mm 0,0 UV-I 0 W/m -2,0 C -1,3 C 6,4 km/h (2 Bft) 98,31 %
11.12.2015 07:30 -1,3 C 95 % 1031,6 hPa 0,0 l/m 1,9 km/h (1 Bft) S-SW 195 0 min 0,000 mm 0,0 UV-I 0 W/m -2,0 C -1,3 C 6,4 km/h (2 Bft) 100,00 %
11.12.2015 07:35 -1,4 C 95 % 1031,6 hPa 0,0 l/m 2,9 km/h (1 Bft) S-SW 213 0 min 0,000 mm 0,0 UV-I 0 W/m -2,1 C -1,4 C 6,4 km/h (2 Bft) 100,00 %
11.12.2015 07:40 -1,4 C 95 % 1031,7 hPa 0,0 l/m 1,1 km/h (1 Bft) SO 134 0 min 0,000 mm 0,0 UV-I 0 W/m -2,1 C -1,4 C 6,4 km/h (2 Bft) 97,39 %
11.12.2015 07:45 -1,4 C 96 % 1031,5 hPa 0,0 l/m 1,3 km/h (1 Bft) SO 134 0 min 0,000 mm 0,0 UV-I 0 W/m -2,0 C -1,4 C 3,2 km/h (1 Bft) 99,12 %
11.12.2015 07:50 -1,3 C 96 % 1031,7 hPa 0,0 l/m 2,6 km/h (1 Bft) SO 128 0 min 0,000 mm 0,0 UV-I 5 W/m -1,9 C -1,3 C 4,8 km/h (1 Bft) 97,64 %
11.12.2015 07:55 -1,3 C 96 % 1031,8 hPa 0,0 l/m 1,1 km/h (1 Bft) SO 128 0 min 0,000 mm 0,0 UV-I 7 W/m -1,9 C -1,3 C 3,2 km/h (1 Bft) 95,41 %
11.12.2015 08:00 -1,3 C 96 % 1031,8 hPa 0,0 l/m 1,5 km/h (1 Bft) S-SW 201 0 min 0,000 mm 0,0 UV-I 7 W/m -1,9 C -1,3 C 6,4 km/h (2 Bft) 96,75 %
11.12.2015 08:05 -1,2 C 96 % 1031,7 hPa 0,0 l/m 2,8 km/h (1 Bft) S 184 0 min 0,000 mm 0,0 UV-I 9 W/m -1,8 C -1,2 C 4,8 km/h (1 Bft) 97,17 %
11.12.2015 08:10 -1,2 C 96 % 1031,7 hPa 0,0 l/m 0,5 km/h (0 Bft) S 184 0 min 0,000 mm 0,0 UV-I 11 W/m -1,8 C -1,2 C 3,2 km/h (1 Bft) 96,75 %
11.12.2015 08:15 -1,2 C 96 % 1031,7 hPa 0,0 l/m 1,8 km/h (1 Bft) S-SW 192 0 min 0,000 mm 0,0 UV-I 14 W/m -1,8 C -1,2 C 4,8 km/h (1 Bft) 96,77 %
11.12.2015 08:20 -1,2 C 96 % 1031,7 hPa 0,0 l/m 3,5 km/h (1 Bft) SW 217 0 min 0,000 mm 0,0 UV-I 16 W/m -1,8 C -1,2 C 6,4 km/h (2 Bft) 96,43 %
11.12.2015 08:25 -1,2 C 96 % 1031,7 hPa 0,0 l/m 4,3 km/h (1 Bft) SW 226 0 min 0,000 mm 0,0 UV-I 19 W/m -1,8 C -1,2 C 9,7 km/h (2 Bft) 98,33 %
11.12.2015 08:30 -1,3 C 96 % 1031,8 hPa 0,0 l/m 3,3 km/h (1 Bft) W-SW 238 0 min 0,000 mm 0,0 UV-I 21 W/m -1,9 C -1,3 C 9,7 km/h (2 Bft) 99,13 %
11.12.2015 08:35 -1,3 C 96 % 1031,7 hPa 0,0 l/m 1,7 km/h (1 Bft) S-SW 212 0 min 0,000 mm 0,0 UV-I 25 W/m -1,9 C -1,3 C 4,8 km/h (1 Bft) 98,21 %
11.12.2015 08:40 -1,2 C 96 % 1031,7 hPa 0,0 l/m 4,5 km/h (1 Bft) S-SW 193 0 min 0,000 mm 0,0 UV-I 30 W/m -1,8 C -1,2 C 6,4 km/h (2 Bft) 98,29 %
11.12.2015 08:45 -1,2 C 96 % 1031,7 hPa 0,0 l/m 3,2 km/h (1 Bft) W 271 0 min 0,000 mm 0,0 UV-I 27 W/m -1,8 C -1,2 C 9,7 km/h (2 Bft) 99,19 %
11.12.2015 08:50 -1,2 C 96 % 1031,8 hPa 0,0 l/m 4,4 km/h (1 Bft) S 186 0 min 0,000 mm 0,0 UV-I 31 W/m -1,8 C -1,2 C 8,0 km/h (2 Bft) 99,08 %
11.12.2015 08:55 -1,3 C 96 % 1031,6 hPa 0,0 l/m 4,8 km/h (1 Bft) S-SW 202 0 min 0,000 mm 0,0 UV-I 38 W/m -1,9 C -1,3 C 9,7 km/h (2 Bft) 100,00 %
11.12.2015 09:00 -1,4 C 96 % 1031,7 hPa 0,0 l/m 5,1 km/h (1 Bft) S-SW 211 0 min 0,000 mm 0,0 UV-I 42 W/m -2,0 C -1,4 C 8,0 km/h (2 Bft) 100,00 %
11.12.2015 09:05 -1,4 C 96 % 1031,7 hPa 0,0 l/m 3,1 km/h (1 Bft) W-SW 240 0 min 0,000 mm 0,0 UV-I 27 W/m -2,0 C -1,4 C 8,0 km/h (2 Bft) 98,44 %
11.12.2015 09:10 -1,4 C 96 % 1031,7 hPa 0,0 l/m 1,0 km/h (0 Bft) S-SO 161 0 min 0,000 mm 0,0 UV-I 30 W/m -2,0 C -1,4 C 3,2 km/h (1 Bft) 99,11 %
11.12.2015 09:15 -1,4 C 96 % 1031,7 hPa 0,0 l/m 5,7 km/h (1 Bft) S-SW 198 0 min 0,000 mm 0,0 UV-I 23 W/m -2,0 C -1,4 C 9,7 km/h (2 Bft) 97,39 %
11.12.2015 09:20 -1,4 C 97 % 1031,6 hPa 0,0 l/m 3,9 km/h (1 Bft) S 174 0 min 0,000 mm 0,0 UV-I 40 W/m -1,8 C -1,4 C 8,0 km/h (2 Bft) 97,44 %
11.12.2015 09:25 -1,4 C 96 % 1031,5 hPa 0,0 l/m 4,4 km/h (1 Bft) W-SW 239 0 min 0,000 mm 0,0 UV-I 44 W/m -2,0 C -1,4 C 8,0 km/h (2 Bft) 98,43 %
11.12.2015 09:30 -1,4 C 96 % 1031,5 hPa 0,0 l/m 3,0 km/h (1 Bft) W 262 0 min 0,000 mm 0,0 UV-I 56 W/m -2,0 C -1,4 C 6,4 km/h (2 Bft) 100,00 %
11.12.2015 09:35 -1,4 C 97 % 1031,4 hPa 0,0 l/m 4,8 km/h (1 Bft) S-SW 194 0 min 0,000 mm 0,0 UV-I 55 W/m -1,8 C -1,4 C 11,3 km/h (2 Bft) 100,00 %
11.12.2015 09:40 -1,4 C 96 % 1031,4 hPa 0,0 l/m 5,9 km/h (2 Bft) SW 233 0 min 0,000 mm 0,0 UV-I 53 W/m -2,0 C -1,4 C 9,7 km/h (2 Bft) 99,17 %
11.12.2015 09:45 -1,4 C 97 % 1031,5 hPa 0,0 l/m 5,3 km/h (1 Bft) W 263 0 min 0,000 mm 0,0 UV-I 62 W/m -1,8 C -1,4 C 9,7 km/h (2 Bft) 98,29 %
11.12.2015 09:50 -1,3 C 97 % 1031,7 hPa 0,0 l/m 2,7 km/h (1 Bft) W-NW 300 0 min 0,000 mm 0,0 UV-I 64 W/m -1,7 C -1,3 C 6,4 km/h (2 Bft) 97,64 %
11.12.2015 09:55 -1,4 C 97 % 1031,7 hPa 0,0 l/m 3,2 km/h (1 Bft) W 271 0 min 0,000 mm 0,0 UV-I 59 W/m -1,8 C -1,4 C 6,4 km/h (2 Bft) 97,17 %
11.12.2015 10:00 -1,6 C 97 % 1031,6 hPa 0,0 l/m 4,4 km/h (1 Bft) W-SW 248 0 min 0,025 mm 0,0 UV-I 59 W/m -2,0 C -1,6 C 8,0 km/h (2 Bft) 97,62 %
11.12.2015 10:05 -1,6 C 97 % 1031,7 hPa 0,0 l/m 3,5 km/h (1 Bft) W-SW 255 0 min 0,000 mm 0,0 UV-I 86 W/m -2,0 C -1,6 C 6,4 km/h (2 Bft) 97,46 %
11.12.2015 10:10 -1,6 C 97 % 1031,7 hPa 0,0 l/m 2,4 km/h (1 Bft) W-SW 238 0 min 0,000 mm 0,0 UV-I 82 W/m -2,0 C -1,6 C 4,8 km/h (1 Bft) 96,58 %
11.12.2015 10:15 -1,6 C 97 % 1031,7 hPa 0,0 l/m 3,0 km/h (1 Bft) S-SW 192 0 min 0,000 mm 0,0 UV-I 92 W/m -2,0 C -1,6 C 6,4 km/h (2 Bft) 95,65 %
11.12.2015 10:20 -1,4 C 98 % 1031,7 hPa 0,0 l/m 2,7 km/h (1 Bft) W 269 0 min 0,000 mm 0,0 UV-I 106 W/m -1,7 C -1,4 C 4,8 km/h (1 Bft) 98,26 %
11.12.2015 10:25 -1,3 C 98 % 1031,9 hPa 0,0 l/m 3,3 km/h (1 Bft) W-NW 288 0 min 0,000 mm 0,0 UV-I 93 W/m -1,6 C -1,3 C 8,0 km/h (2 Bft) 99,12 %
11.12.2015 10:30 -1,2 C 98 % 1031,8 hPa 0,0 l/m 1,3 km/h (1 Bft) W-NW 296 0 min 0,000 mm 0,0 UV-I 83 W/m -1,5 C -1,2 C 4,8 km/h (1 Bft) 98,35 %
11.12.2015 10:35 -1,0 C 98 % 1031,9 hPa 0,0 l/m 1,2 km/h (1 Bft) NW 310 0 min 0,000 mm 0,0 UV-I 77 W/m -1,3 C -1,0 C 3,2 km/h (1 Bft) 97,50 %
11.12.2015 10:40 -0,9 C 97 % 1032,0 hPa 0,0 l/m 2,1 km/h (1 Bft) W-SW 257 0 min 0,000 mm 0,0 UV-I 98 W/m -1,3 C -0,9 C 6,4 km/h (2 Bft) 100,00 %
11.12.2015 10:45 -0,8 C 97 % 1032,1 hPa 0,0 l/m 3,0 km/h (1 Bft) W 261 0 min 0,000 mm 0,0 UV-I 86 W/m -1,2 C -0,8 C 9,7 km/h (2 Bft) 100,00 %
11.12.2015 10:50 -0,9 C 97 % 1031,9 hPa 0,0 l/m 6,3 km/h (2 Bft) SW 229 0 min 0,000 mm 0,0 UV-I 128 W/m -1,3 C -0,9 C 11,3 km/h (2 Bft) 98,20 %
11.12.2015 10:55 -0,9 C 96 % 1031,6 hPa 0,0 l/m 4,1 km/h (1 Bft) S 178 0 min 0,000 mm 0,0 UV-I 141 W/m -1,5 C -0,9 C 8,0 km/h (2 Bft) 99,15 %
11.12.2015 11:00 -0,9 C 97 % 1031,6 hPa 0,0 l/m 3,0 km/h (1 Bft) S-SW 196 0 min 0,026 mm 0,0 UV-I 153 W/m -1,3 C -0,9 C 6,4 km/h (2 Bft) 100,00 %
11.12.2015 11:05 -0,9 C 97 % 1031,2 hPa 0,0 l/m 3,8 km/h (1 Bft) SO 128 0 min 0,000 mm 0,0 UV-I 170 W/m -1,3 C -0,9 C 9,7 km/h (2 Bft) 100,00 %
11.12.2015 11:10 -0,8 C 96 % 1031,3 hPa 0,0 l/m 6,1 km/h (2 Bft) S-SW 200 5 min 0,000 mm 0,0 UV-I 176 W/m -1,4 C -0,8 C 11,3 km/h (2 Bft) 99,15 %
11.12.2015 11:15 -0,9 C 96 % 1031,5 hPa 0,0 l/m 3,2 km/h (1 Bft) S-SW 201 0 min 0,000 mm 0,0 UV-I 134 W/m -1,5 C -0,9 C 8,0 km/h (2 Bft) 99,21 %
11.12.2015 11:20 -0,9 C 96 % 1031,6 hPa 0,0 l/m 4,6 km/h (1 Bft) S-SW 198 0 min 0,000 mm 0,0 UV-I 126 W/m -1,5 C -0,9 C 9,7 km/h (2 Bft) 98,17 %
11.12.2015 11:25 -0,7 C 97 % 1031,4 hPa 0,0 l/m 7,1 km/h (2 Bft) S-SW 201 0 min 0,000 mm 0,0 UV-I 146 W/m -1,1 C -1,4 C 11,3 km/h (2 Bft) 100,00 %
11.12.2015 11:30 -0,5 C 96 % 1031,3 hPa 0,0 l/m 4,3 km/h (1 Bft) SW 227 0 min 0,000 mm 0,0 UV-I 162 W/m -1,1 C -0,5 C 8,0 km/h (2 Bft) 99,21 %
11.12.2015 11:35 -0,6 C 96 % 1031,3 hPa 0,0 l/m 5,0 km/h (1 Bft) S 189 0 min 0,000 mm 0,0 UV-I 126 W/m -1,2 C -0,6 C 9,7 km/h (2 Bft) 100,00 %
11.12.2015 11:40 -0,7 C 96 % 1031,4 hPa 0,0 l/m 5,4 km/h (1 Bft) SW 227 0 min 0,000 mm 0,0 UV-I 126 W/m -1,3 C -0,7 C 8,0 km/h (2 Bft) 100,00 %
11.12.2015 11:45 -0,6 C 96 % 1031,2 hPa 0,0 l/m 3,9 km/h (1 Bft) W-SW 258 0 min 0,000 mm 0,0 UV-I 125 W/m -1,2 C -0,6 C 11,3 km/h (2 Bft) 98,31 %
11.12.2015 11:50 -0,4 C 96 % 1031,0 hPa 0,0 l/m 0,9 km/h (0 Bft) W 259 0 min 0,000 mm 0,1 UV-I 141 W/m -1,0 C -0,4 C 4,8 km/h (1 Bft) 99,19 %
11.12.2015 11:55 -0,4 C 95 % 1030,8 hPa 0,0 l/m 3,2 km/h (1 Bft) S-SW 207 5 min 0,000 mm 0,5 UV-I 198 W/m -1,1 C -0,4 C 8,0 km/h (2 Bft) 98,21 %
11.12.2015 12:00 -0,4 C 94 % 1030,7 hPa 0,0 l/m 4,3 km/h (1 Bft) W 264 0 min 0,051 mm 0,5 UV-I 174 W/m -1,2 C -0,4 C 6,4 km/h (2 Bft) 97,37 %
11.12.2015 12:05 -0,5 C 95 % 1030,5 hPa 0,0 l/m 2,2 km/h (1 Bft) SW 215 0 min 0,000 mm 0,5 UV-I 127 W/m -1,2 C -0,5 C 4,8 km/h (1 Bft) 97,52 %
11.12.2015 12:10 -0,3 C 95 % 1030,7 hPa 0,0 l/m 4,6 km/h (1 Bft) W-NW 284 0 min 0,000 mm 0,5 UV-I 121 W/m -1,0 C -0,3 C 9,7 km/h (2 Bft) 97,44 %
11.12.2015 12:15 -0,4 C 95 % 1030,8 hPa 0,0 l/m 3,0 km/h (1 Bft) W 281 0 min 0,000 mm 0,0 UV-I 113 W/m -1,1 C -0,4 C 6,4 km/h (2 Bft) 98,26 %
11.12.2015 12:20 -0,3 C 95 % 1030,6 hPa 0,0 l/m 4,5 km/h (1 Bft) S-SW 201 0 min 0,000 mm 0,0 UV-I 137 W/m -1,0 C -0,3 C 6,4 km/h (2 Bft) 97,39 %
11.12.2015 12:25 -0,3 C 96 % 1030,6 hPa 0,0 l/m 5,1 km/h (1 Bft) SW 232 0 min 0,000 mm 0,0 UV-I 122 W/m -0,9 C -0,3 C 8,0 km/h (2 Bft) 97,56 %
11.12.2015 12:30 -0,3 C 96 % 1030,6 hPa 0,0 l/m 3,0 km/h (1 Bft) W-SW 252 0 min 0,000 mm 0,0 UV-I 123 W/m -0,9 C -0,3 C 6,4 km/h (2 Bft) 99,11 %
11.12.2015 12:35 -0,2 C 95 % 1030,6 hPa 0,0 l/m 2,8 km/h (1 Bft) S 175 0 min 0,000 mm 0,0 UV-I 139 W/m -0,9 C -0,2 C 4,8 km/h (1 Bft) 99,13 %
11.12.2015 12:40 0,2 C 96 % 1030,6 hPa 0,0 l/m 1,9 km/h (1 Bft) W-SW 238 0 min 0,000 mm 0,0 UV-I 172 W/m -0,4 C 0,2 C 4,8 km/h (1 Bft) 98,33 %
11.12.2015 12:45 0,4 C 95 % 1030,5 hPa 0,0 l/m 1,1 km/h (1 Bft) W-NW 299 0 min 0,000 mm 0,0 UV-I 144 W/m -0,3 C 0,4 C 4,8 km/h (1 Bft) 100,00 %
11.12.2015 12:50 0,2 C 94 % 1030,6 hPa 0,0 l/m 1,9 km/h (1 Bft) W 279 0 min 0,000 mm 0,0 UV-I 156 W/m -0,6 C 0,2 C 6,4 km/h (2 Bft) 100,00 %
11.12.2015 12:55 0,1 C 94 % 1030,6 hPa 0,0 l/m 1,0 km/h (0 Bft) W-NW 284 0 min 0,000 mm 0,0 UV-I 133 W/m -0,7 C 0,1 C 3,2 km/h (1 Bft) 99,11 %
11.12.2015 13:00 0,2 C 95 % 1030,5 hPa 0,0 l/m 0,4 km/h (0 Bft) W-NW 284 0 min 0,050 mm 0,0 UV-I 122 W/m -0,5 C 0,2 C 1,6 km/h (1 Bft) 100,00 %
11.12.2015 13:05 0,1 C 94 % 1030,2 hPa 0,0 l/m 0,4 km/h (0 Bft) N 355 0 min 0,000 mm 0,0 UV-I 111 W/m -0,7 C 0,1 C 3,2 km/h (1 Bft) 99,02 %
11.12.2015 13:10 0,2 C 95 % 1030,2 hPa 0,0 l/m 0,8 km/h (0 Bft) N-NO 14 0 min 0,000 mm 0,0 UV-I 108 W/m -0,5 C 0,2 C 4,8 km/h (1 Bft) 99,21 %
11.12.2015 13:15 0,2 C 95 % 1030,2 hPa 0,0 l/m 0,6 km/h (0 Bft) N 5 0 min 0,000 mm 0,0 UV-I 119 W/m -0,5 C 0,2 C 3,2 km/h (1 Bft) 100,00 %
11.12.2015 13:20 0,3 C 95 % 1030,2 hPa 0,0 l/m 0,6 km/h (0 Bft) N 5 5 min 0,000 mm 0,0 UV-I 179 W/m -0,4 C 0,3 C 3,2 km/h (1 Bft) 99,17 %
11.12.2015 13:25 0,4 C 94 % 1030,1 hPa 0,0 l/m 1,5 km/h (1 Bft) NW 308 0 min 0,000 mm 0,0 UV-I 143 W/m -0,5 C 0,4 C 3,2 km/h (1 Bft) 98,31 %
11.12.2015 13:30 0,3 C 94 % 1030,0 hPa 0,0 l/m 0,1 km/h (0 Bft) NW 308 0 min 0,000 mm 0,0 UV-I 109 W/m -0,5 C 0,3 C 1,6 km/h (1 Bft) 100,00 %
11.12.2015 13:35 0,2 C 94 % 1030,1 hPa 0,0 l/m 0,3 km/h (0 Bft) SW 229 0 min 0,000 mm 0,0 UV-I 127 W/m -0,6 C 0,2 C 1,6 km/h (1 Bft) 98,37 %
11.12.2015 13:40 0,3 C 94 % 1030,1 hPa 0,0 l/m 3,7 km/h (1 Bft) S-SW 211 0 min 0,000 mm 0,0 UV-I 131 W/m -0,5 C 0,3 C 6,4 km/h (2 Bft) 99,15 %
11.12.2015 13:45 0,4 C 94 % 1030,0 hPa 0,0 l/m 3,1 km/h (1 Bft) SW 227 0 min 0,000 mm 0,0 UV-I 112 W/m -0,5 C 0,4 C 4,8 km/h (1 Bft) 97,37 %
11.12.2015 13:50 0,4 C 94 % 1029,9 hPa 0,0 l/m 1,7 km/h (1 Bft) SW 218 0 min 0,000 mm 0,0 UV-I 114 W/m -0,5 C 0,4 C 4,8 km/h (1 Bft) 95,97 %
11.12.2015 13:55 0,5 C 94 % 1030,0 hPa 0,0 l/m 0,3 km/h (0 Bft) SW 218 0 min 0,000 mm 0,0 UV-I 122 W/m -0,4 C 0,5 C 1,6 km/h (1 Bft) 98,21 %
11.12.2015 14:00 0,6 C 94 % 1030,0 hPa 0,0 l/m 0,9 km/h (0 Bft) W-NW 287 0 min 0,000 mm 0,0 UV-I 129 W/m -0,3 C 0,6 C 3,2 km/h (1 Bft) 97,32 %
11.12.2015 14:05 0,8 C 94 % 1030,0 hPa 0,0 l/m 2,0 km/h (1 Bft) W 281 5 min 0,051 mm 0,0 UV-I 174 W/m -0,1 C 0,8 C 4,8 km/h (1 Bft) 96,61 %
11.12.2015 14:10 0,9 C 94 % 1029,9 hPa 0,0 l/m 1,1 km/h (1 Bft) W 281 5 min 0,000 mm 0,0 UV-I 145 W/m 0,0 C 0,9 C 3,2 km/h (1 Bft) 95,12 %
11.12.2015 14:15 0,9 C 94 % 1029,9 hPa 0,0 l/m 0,7 km/h (0 Bft) N 351 5 min 0,000 mm 0,0 UV-I 122 W/m 0,0 C 0,9 C 3,2 km/h (1 Bft) 98,26 %
11.12.2015 14:20 1,0 C 93 % 1029,8 hPa 0,0 l/m 0,4 km/h (0 Bft) N 351 0 min 0,000 mm 0,0 UV-I 99 W/m -0,0 C 1,0 C 1,6 km/h (1 Bft) 98,21 %
11.12.2015 14:25 0,9 C 94 % 1029,8 hPa 0,0 l/m 0,3 km/h (0 Bft) N 351 0 min 0,000 mm 0,0 UV-I 105 W/m 0,0 C 0,9 C 1,6 km/h (1 Bft) 97,62 %
11.12.2015 14:30 1,0 C 94 % 1029,7 hPa 0,0 l/m 0,8 km/h (0 Bft) SO 134 0 min 0,000 mm 0,0 UV-I 103 W/m 0,1 C 1,0 C 3,2 km/h (1 Bft) 100,00 %
11.12.2015 14:35 1,1 C 94 % 1029,7 hPa 0,0 l/m 0,5 km/h (0 Bft) SO 143 0 min 0,000 mm 0,0 UV-I 100 W/m 0,2 C 1,1 C 1,6 km/h (1 Bft) 97,39 %
11.12.2015 14:40 1,1 C 93 % 1029,8 hPa 0,0 l/m 0,9 km/h (0 Bft) SO 143 5 min 0,000 mm 0,0 UV-I 112 W/m 0,1 C 1,1 C 3,2 km/h (1 Bft) 100,00 %
11.12.2015 14:45 1,1 C 93 % 1029,8 hPa 0,0 l/m 2,7 km/h (1 Bft) S-SW 206 5 min 0,000 mm 0,0 UV-I 104 W/m 0,1 C 1,1 C 6,4 km/h (2 Bft) 99,15 %
11.12.2015 14:50 1,0 C 93 % 1029,8 hPa 0,0 l/m 2,5 km/h (1 Bft) S-SW 201 5 min 0,000 mm 0,0 UV-I 90 W/m -0,0 C 1,0 C 4,8 km/h (1 Bft) 100,00 %
11.12.2015 14:55 0,9 C 93 % 1029,8 hPa 0,0 l/m 2,9 km/h (1 Bft) S-SW 202 0 min 0,000 mm 0,0 UV-I 79 W/m -0,1 C 0,9 C 6,4 km/h (2 Bft) 99,15 %
11.12.2015 15:00 0,9 C 93 % 1029,8 hPa 0,0 l/m 2,1 km/h (1 Bft) S-SW 209 0 min 0,026 mm 0,0 UV-I 71 W/m -0,1 C 0,9 C 4,8 km/h (1 Bft) 98,35 %
11.12.2015 15:05 0,9 C 94 % 1029,8 hPa 0,0 l/m 1,4 km/h (1 Bft) S-SW 209 0 min 0,000 mm 0,0 UV-I 61 W/m 0,0 C 0,9 C 3,2 km/h (1 Bft) 98,10 %
11.12.2015 15:10 0,9 C 94 % 1029,7 hPa 0,0 l/m 1,6 km/h (1 Bft) S-SW 209 0 min 0,000 mm 0,0 UV-I 54 W/m 0,0 C 0,9 C 3,2 km/h (1 Bft) 99,19 %
11.12.2015 15:15 0,8 C 94 % 1029,8 hPa 0,0 l/m 1,3 km/h (1 Bft) S-SW 209 0 min 0,000 mm 0,0 UV-I 49 W/m -0,1 C 0,8 C 3,2 km/h (1 Bft) 98,33 %
11.12.2015 15:20 0,9 C 94 % 1029,8 hPa 0,0 l/m 0,6 km/h (0 Bft) S-SW 209 0 min 0,000 mm 0,0 UV-I 42 W/m 0,0 C 0,9 C 3,2 km/h (1 Bft) 98,11 %
11.12.2015 15:25 0,9 C 94 % 1029,8 hPa 0,0 l/m 0,5 km/h (0 Bft) S-SW 209 0 min 0,000 mm 0,0 UV-I 36 W/m 0,0 C 0,9 C 3,2 km/h (1 Bft) 100,00 %
11.12.2015 15:30 0,9 C 94 % 1029,7 hPa 0,0 l/m 0,3 km/h (0 Bft) S-SW 209 0 min 0,000 mm 0,0 UV-I 30 W/m 0,0 C 0,9 C 1,6 km/h (1 Bft) 99,12 %
11.12.2015 15:35 0,8 C 94 % 1029,6 hPa 0,0 l/m 0,0 km/h (0 Bft) S-SW 209 0 min 0,000 mm 0,0 UV-I 26 W/m -0,1 C 0,8 C 1,6 km/h (1 Bft) 99,13 %
11.12.2015 15:40 0,8 C 95 % 1029,8 hPa 0,0 l/m 0,3 km/h (0 Bft) S-SW 209 0 min 0,000 mm 0,0 UV-I 23 W/m 0,1 C 0,8 C 3,2 km/h (1 Bft) 99,15 %
11.12.2015 15:45 0,8 C 94 % 1029,6 hPa 0,0 l/m 1,8 km/h (1 Bft) S-SW 209 0 min 0,000 mm 0,0 UV-I 19 W/m -0,1 C 0,8 C 3,2 km/h (1 Bft) 95,83 %
11.12.2015 15:50 0,8 C 95 % 1029,5 hPa 0,0 l/m 1,1 km/h (1 Bft) S-SW 209 0 min 0,000 mm 0,0 UV-I 15 W/m 0,1 C 0,8 C 3,2 km/h (1 Bft) 95,76 %
11.12.2015 15:55 0,7 C 95 % 1029,6 hPa 0,0 l/m 0,8 km/h (0 Bft) S-SW 209 0 min 0,000 mm 0,0 UV-I 11 W/m -0,0 C 0,7 C 3,2 km/h (1 Bft) 94,87 %
11.12.2015 16:00 0,6 C 95 % 1029,6 hPa 0,0 l/m 0,2 km/h (0 Bft) S-SW 209 0 min 0,000 mm 0,0 UV-I 7 W/m -0,1 C 0,6 C 1,6 km/h (1 Bft) 95,41 %
11.12.2015 16:05 0,6 C 95 % 1029,4 hPa 0,0 l/m 0,0 km/h (0 Bft) S-SW 209 0 min 0,000 mm 0,0 UV-I 3 W/m -0,1 C 0,6 C 1,6 km/h (1 Bft) 96,06 %
11.12.2015 16:10 0,4 C 95 % 1029,5 hPa 0,0 l/m 0,1 km/h (0 Bft) S-SW 209 0 min 0,000 mm 0,0 UV-I 0 W/m -0,3 C 0,4 C 1,6 km/h (1 Bft) 97,30 %
11.12.2015 16:15 0,3 C 96 % 1029,5 hPa 0,0 l/m 0,0 km/h (0 Bft) S-SW 209 0 min 0,000 mm 0,0 UV-I 0 W/m -0,3 C 0,3 C 0,0 km/h (0 Bft) 98,35 %
11.12.2015 16:20 0,2 C 96 % 1029,3 hPa 0,0 l/m 0,0 km/h (0 Bft) S-SW 209 0 min 0,000 mm 0,0 UV-I 0 W/m -0,4 C 0,2 C 1,6 km/h (1 Bft) 95,65 %
11.12.2015 16:25 0,1 C 96 % 1029,3 hPa 0,0 l/m 0,5 km/h (0 Bft) S-SW 209 0 min 0,000 mm 0,0 UV-I 0 W/m -0,5 C 0,1 C 3,2 km/h (1 Bft) 99,12 %
11.12.2015 16:30 0,1 C 97 % 1029,3 hPa 0,0 l/m 0,7 km/h (0 Bft) S-SW 209 0 min 0,000 mm 0,0 UV-I 0 W/m -0,3 C 0,1 C 3,2 km/h (1 Bft) 99,17 %
11.12.2015 16:35 0,1 C 97 % 1029,3 hPa 0,0 l/m 1,6 km/h (1 Bft) S-SW 209 0 min 0,000 mm 0,0 UV-I 0 W/m -0,3 C 0,1 C 4,8 km/h (1 Bft) 98,31 %
11.12.2015 16:40 0,1 C 97 % 1029,3 hPa 0,0 l/m 2,0 km/h (1 Bft) S-SO 165 0 min 0,000 mm 0,0 UV-I 0 W/m -0,3 C 0,1 C 8,0 km/h (2 Bft) 94,87 %
11.12.2015 16:45 0,1 C 97 % 1029,3 hPa 0,0 l/m 3,9 km/h (1 Bft) S 180 0 min 0,000 mm 0,0 UV-I 0 W/m -0,3 C 0,1 C 6,4 km/h (2 Bft) 99,13 %
11.12.2015 16:50 0,1 C 97 % 1029,3 hPa 0,0 l/m 1,8 km/h (1 Bft) S 180 0 min 0,000 mm 0,0 UV-I 0 W/m -0,3 C 0,1 C 3,2 km/h (1 Bft) 99,17 %
11.12.2015 16:55 0,1 C 97 % 1029,3 hPa 0,0 l/m 2,8 km/h (1 Bft) S-SO 167 0 min 0,000 mm 0,0 UV-I 0 W/m -0,3 C 0,1 C 6,4 km/h (2 Bft) 99,13 %
11.12.2015 17:00 0,2 C 97 % 1029,2 hPa 0,0 l/m 2,1 km/h (1 Bft) S 169 0 min 0,000 mm 0,0 UV-I 0 W/m -0,2 C 0,2 C 6,4 km/h (2 Bft) 99,11 %
11.12.2015 17:05 0,2 C 97 % 1029,1 hPa 0,0 l/m 1,7 km/h (1 Bft) S 169 0 min 0,000 mm 0,0 UV-I 0 W/m -0,2 C 0,2 C 3,2 km/h (1 Bft) 98,25 %
11.12.2015 17:10 0,3 C 97 % 1029,1 hPa 0,0 l/m 1,3 km/h (1 Bft) S 169 0 min 0,000 mm 0,0 UV-I 0 W/m -0,1 C 0,3 C 3,2 km/h (1 Bft) 99,21 %
11.12.2015 17:15 0,3 C 96 % 1029,0 hPa 0,0 l/m 1,7 km/h (1 Bft) S 169 0 min 0,000 mm 0,0 UV-I 0 W/m -0,3 C 0,3 C 3,2 km/h (1 Bft) 99,15 %
11.12.2015 17:20 0,2 C 96 % 1029,1 hPa 0,0 l/m 1,5 km/h (1 Bft) S 169 0 min 0,000 mm 0,0 UV-I 0 W/m -0,4 C 0,2 C 3,2 km/h (1 Bft) 99,10 %
11.12.2015 17:25 0,1 C 96 % 1029,1 hPa 0,0 l/m 0,1 km/h (0 Bft) S 169 0 min 0,000 mm 0,0 UV-I 0 W/m -0,5 C 0,1 C 1,6 km/h (1 Bft) 99,19 %
11.12.2015 17:30 0,2 C 96 % 1029,1 hPa 0,0 l/m 0,0 km/h (0 Bft) S 169 0 min 0,000 mm 0,0 UV-I 0 W/m -0,4 C 0,2 C 1,6 km/h (1 Bft) 97,17 %
11.12.2015 17:35 0,2 C 96 % 1029,0 hPa 0,0 l/m 0,2 km/h (0 Bft) S 169 0 min 0,000 mm 0,0 UV-I 0 W/m -0,4 C 0,2 C 1,6 km/h (1 Bft) 100,00 %
11.12.2015 17:40 0,2 C 96 % 1029,0 hPa 0,0 l/m 0,4 km/h (0 Bft) S 169 0 min 0,000 mm 0,0 UV-I 0 W/m -0,4 C 0,2 C 1,6 km/h (1 Bft) 96,61 %
11.12.2015 17:45 0,2 C 97 % 1028,9 hPa 0,0 l/m 1,6 km/h (1 Bft) S-SO 153 0 min 0,000 mm 0,0 UV-I 0 W/m -0,2 C 0,2 C 4,8 km/h (1 Bft) 97,44 %
11.12.2015 17:50 0,2 C 97 % 1028,9 hPa 0,0 l/m 2,8 km/h (1 Bft) S-SO 156 0 min 0,000 mm 0,0 UV-I 0 W/m -0,2 C 0,2 C 6,4 km/h (2 Bft) 95,41 %
11.12.2015 17:55 0,3 C 97 % 1028,9 hPa 0,0 l/m 2,5 km/h (1 Bft) S-SO 164 0 min 0,000 mm 0,0 UV-I 0 W/m -0,1 C 0,3 C 6,4 km/h (2 Bft) 96,83 %
11.12.2015 18:00 0,3 C 97 % 1028,9 hPa 0,0 l/m 1,6 km/h (1 Bft) S-SO 165 0 min 0,000 mm 0,0 UV-I 0 W/m -0,1 C 0,3 C 6,4 km/h (2 Bft) 97,32 %
11.12.2015 18:05 0,3 C 97 % 1028,9 hPa 0,0 l/m 1,7 km/h (1 Bft) S-SO 165 0 min 0,000 mm 0,0 UV-I 0 W/m -0,1 C 0,3 C 6,4 km/h (2 Bft) 96,43 %
11.12.2015 18:10 0,3 C 97 % 1028,9 hPa 0,0 l/m 1,0 km/h (0 Bft) S-SO 165 0 min 0,000 mm 0,0 UV-I 0 W/m -0,1 C 0,3 C 3,2 km/h (1 Bft) 98,37 %
11.12.2015 18:15 0,3 C 96 % 1028,8 hPa 0,0 l/m 1,7 km/h (1 Bft) S-SO 165 0 min 0,000 mm 0,0 UV-I 0 W/m -0,3 C 0,3 C 3,2 km/h (1 Bft) 99,13 %
11.12.2015 18:20 0,2 C 96 % 1028,9 hPa 0,0 l/m 1,9 km/h (1 Bft) S-SO 165 0 min 0,000 mm 0,0 UV-I 0 W/m -0,4 C 0,2 C 3,2 km/h (1 Bft) 99,19 %
11.12.2015 18:25 0,1 C 96 % 1028,9 hPa 0,0 l/m 1,8 km/h (1 Bft) W 271 0 min 0,000 mm 0,0 UV-I 0 W/m -0,5 C 0,1 C 3,2 km/h (1 Bft) 98,29 %
11.12.2015 18:30 0,0 C 97 % 1028,8 hPa 0,0 l/m 2,3 km/h (1 Bft) S-SW 199 0 min 0,000 mm 0,0 UV-I 0 W/m -0,4 C 0,0 C 4,8 km/h (1 Bft) 100,00 %
11.12.2015 18:35 0,0 C 97 % 1028,9 hPa 0,0 l/m 1,8 km/h (1 Bft) S-SW 192 0 min 0,000 mm 0,0 UV-I 0 W/m -0,4 C 0,0 C 4,8 km/h (1 Bft) 100,00 %
11.12.2015 18:40 0,0 C 97 % 1028,9 hPa 0,0 l/m 1,1 km/h (1 Bft) S-SW 192 0 min 0,000 mm 0,0 UV-I 0 W/m -0,4 C 0,0 C 3,2 km/h (1 Bft) 98,20 %
11.12.2015 18:45 -0,1 C 97 % 1028,9 hPa 0,0 l/m 1,1 km/h (1 Bft) SW 218 0 min 0,000 mm 0,0 UV-I 0 W/m -0,5 C -0,1 C 3,2 km/h (1 Bft) 99,19 %
11.12.2015 18:50 -0,1 C 97 % 1028,9 hPa 0,0 l/m 2,0 km/h (1 Bft) SW 218 0 min 0,000 mm 0,0 UV-I 0 W/m -0,5 C -0,1 C 3,2 km/h (1 Bft) 100,00 %
11.12.2015 18:55 0,0 C 97 % 1028,9 hPa 0,0 l/m 1,6 km/h (1 Bft) SW 218 0 min 0,000 mm 0,0 UV-I 0 W/m -0,4 C 0,0 C 3,2 km/h (1 Bft) 100,00 %
11.12.2015 19:00 0,1 C 97 % 1028,9 hPa 0,0 l/m 2,0 km/h (1 Bft) SW 217 0 min 0,000 mm 0,0 UV-I 0 W/m -0,3 C 0,1 C 4,8 km/h (1 Bft) 99,11 %
11.12.2015 19:05 0,0 C 97 % 1029,1 hPa 0,0 l/m 2,0 km/h (1 Bft) W 264 0 min 0,000 mm 0,0 UV-I 0 W/m -0,4 C 0,0 C 4,8 km/h (1 Bft) 99,21 %
11.12.2015 19:10 0,0 C 97 % 1029,1 hPa 0,0 l/m 1,5 km/h (1 Bft) W 262 0 min 0,000 mm 0,0 UV-I 0 W/m -0,4 C 0,0 C 3,2 km/h (1 Bft) 99,13 %
11.12.2015 19:15 -0,1 C 97 % 1029,0 hPa 0,0 l/m 1,2 km/h (1 Bft) W 262 0 min 0,000 mm 0,0 UV-I 0 W/m -0,5 C -0,1 C 1,6 km/h (1 Bft) 99,11 %
11.12.2015 19:20 -0,1 C 97 % 1029,0 hPa 0,0 l/m 1,0 km/h (0 Bft) S-SW 205 0 min 0,000 mm 0,0 UV-I 0 W/m -0,5 C -0,1 C 3,2 km/h (1 Bft) 99,19 %
11.12.2015 19:25 -0,1 C 97 % 1029,0 hPa 0,0 l/m 0,3 km/h (0 Bft) S-SW 205 0 min 0,000 mm 0,0 UV-I 0 W/m -0,5 C -0,1 C 1,6 km/h (1 Bft) 100,00 %
11.12.2015 19:30 -0,1 C 97 % 1029,1 hPa 0,0 l/m 1,1 km/h (1 Bft) S-SW 205 0 min 0,000 mm 0,0 UV-I 0 W/m -0,5 C -0,1 C 3,2 km/h (1 Bft) 100,00 %
11.12.2015 19:35 -0,1 C 97 % 1029,1 hPa 0,0 l/m 1,4 km/h (1 Bft) S-SW 205 0 min 0,000 mm 0,0 UV-I 0 W/m -0,5 C -0,1 C 3,2 km/h (1 Bft) 99,15 %
11.12.2015 19:40 -0,1 C 97 % 1029,1 hPa 0,0 l/m 2,5 km/h (1 Bft) S-SW 205 0 min 0,000 mm 0,0 UV-I 0 W/m -0,5 C -0,1 C 4,8 km/h (1 Bft) 97,32 %
11.12.2015 19:45 -0,2 C 97 % 1029,0 hPa 0,0 l/m 4,1 km/h (1 Bft) S-SW 194 0 min 0,000 mm 0,0 UV-I 0 W/m -0,6 C -0,2 C 6,4 km/h (2 Bft) 98,11 %
11.12.2015 19:50 -0,1 C 97 % 1028,9 hPa 0,0 l/m 4,0 km/h (1 Bft) S 169 0 min 0,000 mm 0,0 UV-I 0 W/m -0,5 C -0,1 C 8,0 km/h (2 Bft) 96,97 %
11.12.2015 19:55 -0,1 C 97 % 1028,9 hPa 0,0 l/m 6,5 km/h (2 Bft) S 175 0 min 0,000 mm 0,0 UV-I 0 W/m -0,5 C -0,2 C 9,7 km/h (2 Bft) 97,32 %
11.12.2015 20:00 -0,1 C 97 % 1028,8 hPa 0,0 l/m 5,7 km/h (1 Bft) S 185 0 min 0,000 mm 0,0 UV-I 0 W/m -0,5 C -0,1 C 9,7 km/h (2 Bft) 97,56 %
11.12.2015 20:05 -0,1 C 97 % 1028,8 hPa 0,0 l/m 6,1 km/h (2 Bft) S-SW 202 0 min 0,000 mm 0,0 UV-I 0 W/m -0,5 C -0,1 C 11,3 km/h (2 Bft) 94,92 %
11.12.2015 20:10 -0,1 C 97 % 1028,8 hPa 0,0 l/m 6,1 km/h (2 Bft) S-SW 192 0 min 0,000 mm 0,0 UV-I 0 W/m -0,5 C -0,1 C 9,7 km/h (2 Bft) 97,37 %
11.12.2015 20:15 -0,1 C 97 % 1028,8 hPa 0,0 l/m 6,7 km/h (2 Bft) S 174 0 min 0,000 mm 0,0 UV-I 0 W/m -0,5 C -0,4 C 9,7 km/h (2 Bft) 98,06 %
11.12.2015 20:20 0,0 C 97 % 1028,8 hPa 0,0 l/m 8,3 km/h (2 Bft) S-SW 192 0 min 0,000 mm 0,0 UV-I 0 W/m -0,4 C -1,9 C 11,3 km/h (2 Bft) 98,50 %
11.12.2015 20:25 0,1 C 97 % 1028,8 hPa 0,0 l/m 9,7 km/h (2 Bft) S-SW 204 0 min 0,000 mm 0,0 UV-I 0 W/m -0,3 C -3,1 C 14,5 km/h (3 Bft) 97,44 %
11.12.2015 20:30 0,1 C 97 % 1028,8 hPa 0,0 l/m 7,9 km/h (2 Bft) S-SW 198 0 min 0,000 mm 0,0 UV-I 0 W/m -0,3 C -1,4 C 11,3 km/h (2 Bft) 100,00 %
11.12.2015 20:35 0,1 C 97 % 1028,9 hPa 0,0 l/m 6,1 km/h (2 Bft) S-SW 206 0 min 0,000 mm 0,0 UV-I 0 W/m -0,3 C 0,1 C 9,7 km/h (2 Bft) 99,08 %
11.12.2015 20:40 0,2 C 97 % 1028,9 hPa 0,0 l/m 5,0 km/h (1 Bft) W-SW 238 0 min 0,000 mm 0,0 UV-I 0 W/m -0,2 C 0,2 C 8,0 km/h (2 Bft) 97,44 %
11.12.2015 20:45 0,1 C 97 % 1029,0 hPa 0,0 l/m 3,9 km/h (1 Bft) SW 225 0 min 0,000 mm 0,0 UV-I 0 W/m -0,3 C 0,1 C 6,4 km/h (2 Bft) 100,00 %
11.12.2015 20:50 0,2 C 97 % 1029,0 hPa 0,0 l/m 2,2 km/h (1 Bft) W 274 0 min 0,000 mm 0,0 UV-I 0 W/m -0,2 C 0,2 C 4,8 km/h (1 Bft) 100,00 %
11.12.2015 20:55 0,1 C 97 % 1029,0 hPa 0,0 l/m 1,1 km/h (1 Bft) W 274 0 min 0,000 mm 0,0 UV-I 0 W/m -0,3 C 0,1 C 1,6 km/h (1 Bft) 100,00 %
11.12.2015 21:00 0,2 C 97 % 1028,9 hPa 0,0 l/m 0,1 km/h (0 Bft) W 274 0 min 0,000 mm 0,0 UV-I 0 W/m -0,2 C 0,2 C 1,6 km/h (1 Bft) 99,11 %
11.12.2015 21:05 0,1 C 97 % 1028,8 hPa 0,0 l/m 0,5 km/h (0 Bft) W 274 0 min 0,000 mm 0,0 UV-I 0 W/m -0,3 C 0,1 C 1,6 km/h (1 Bft) 99,21 %
11.12.2015 21:10 0,1 C 97 % 1028,9 hPa 0,0 l/m 1,8 km/h (1 Bft) W-SW 237 0 min 0,000 mm 0,0 UV-I 0 W/m -0,3 C 0,1 C 4,8 km/h (1 Bft) 99,08 %
11.12.2015 21:15 0,0 C 97 % 1028,9 hPa 0,0 l/m 3,2 km/h (1 Bft) SW 222 0 min 0,000 mm 0,0 UV-I 0 W/m -0,4 C 0,0 C 4,8 km/h (1 Bft) 100,00 %
11.12.2015 21:20 0,1 C 97 % 1029,0 hPa 0,0 l/m 4,1 km/h (1 Bft) W-SW 248 0 min 0,000 mm 0,0 UV-I 0 W/m -0,3 C 0,1 C 8,0 km/h (2 Bft) 98,25 %
11.12.2015 21:25 0,1 C 97 % 1029,0 hPa 0,0 l/m 6,0 km/h (2 Bft) SW 227 0 min 0,000 mm 0,0 UV-I 0 W/m -0,3 C 0,1 C 9,7 km/h (2 Bft) 99,23 %
11.12.2015 21:30 0,3 C 96 % 1029,1 hPa 0,0 l/m 6,8 km/h (2 Bft) SW 224 0 min 0,000 mm 0,0 UV-I 0 W/m -0,3 C -0,1 C 9,7 km/h (2 Bft) 99,10 %
11.12.2015 21:35 0,8 C 95 % 1029,0 hPa 0,0 l/m 7,4 km/h (2 Bft) SW 231 0 min 0,000 mm 0,0 UV-I 0 W/m 0,1 C -0,2 C 11,3 km/h (2 Bft) 99,13 %
11.12.2015 21:40 1,2 C 94 % 1029,0 hPa 0,0 l/m 7,6 km/h (2 Bft) SW 225 0 min 0,000 mm 0,0 UV-I 0 W/m 0,3 C -0,0 C 12,9 km/h (3 Bft) 99,13 %
11.12.2015 21:45 1,6 C 92 % 1028,8 hPa 0,0 l/m 9,2 km/h (2 Bft) SW 234 0 min 0,000 mm 0,0 UV-I 0 W/m 0,4 C -1,0 C 14,5 km/h (3 Bft) 98,41 %
11.12.2015 21:50 1,8 C 90 % 1028,8 hPa 0,0 l/m 6,9 km/h (2 Bft) SW 220 0 min 0,000 mm 0,0 UV-I 0 W/m 0,3 C 1,3 C 14,5 km/h (3 Bft) 96,43 %
11.12.2015 21:55 1,8 C 90 % 1028,8 hPa 0,0 l/m 6,6 km/h (2 Bft) SW 231 0 min 0,000 mm 0,0 UV-I 0 W/m 0,3 C 1,6 C 9,7 km/h (2 Bft) 97,52 %
11.12.2015 22:00 1,8 C 90 % 1028,7 hPa 0,0 l/m 7,7 km/h (2 Bft) SW 224 0 min 0,000 mm 0,0 UV-I 0 W/m 0,3 C 0,5 C 11,3 km/h (2 Bft) 94,59 %
11.12.2015 22:05 2,2 C 89 % 1028,6 hPa 0,0 l/m 8,9 km/h (2 Bft) SW 220 0 min 0,000 mm 0,0 UV-I 0 W/m 0,6 C -0,1 C 12,9 km/h (3 Bft) 96,77 %
11.12.2015 22:10 2,6 C 88 % 1028,7 hPa 0,0 l/m 10,1 km/h (2 Bft) SW 235 0 min 0,000 mm 0,0 UV-I 0 W/m 0,8 C -0,7 C 16,1 km/h (3 Bft) 98,11 %
11.12.2015 22:15 2,8 C 86 % 1028,6 hPa 0,0 l/m 9,6 km/h (2 Bft) SW 231 0 min 0,000 mm 0,0 UV-I 0 W/m 0,7 C -0,0 C 16,1 km/h (3 Bft) 97,56 %
11.12.2015 22:20 3,2 C 85 % 1028,5 hPa 0,0 l/m 8,0 km/h (2 Bft) SW 225 0 min 0,000 mm 0,0 UV-I 0 W/m 0,9 C 1,7 C 12,9 km/h (3 Bft) 99,12 %
11.12.2015 22:25 3,6 C 83 % 1028,5 hPa 0,0 l/m 9,7 km/h (2 Bft) SW 220 0 min 0,000 mm 0,0 UV-I 0 W/m 1,0 C 0,8 C 14,5 km/h (3 Bft) 97,42 %
11.12.2015 22:30 3,8 C 82 % 1028,5 hPa 0,0 l/m 9,7 km/h (2 Bft) SW 225 0 min 0,000 mm 0,0 UV-I 0 W/m 1,0 C 1,0 C 17,7 km/h (3 Bft) 97,37 %
11.12.2015 22:35 3,8 C 82 % 1028,5 hPa 0,0 l/m 8,0 km/h (2 Bft) SW 225 0 min 0,000 mm 0,0 UV-I 0 W/m 1,0 C 2,3 C 14,5 km/h (3 Bft) 99,12 %
11.12.2015 22:40 3,8 C 82 % 1028,4 hPa 0,0 l/m 11,3 km/h (2 Bft) SW 225 0 min 0,000 mm 0,0 UV-I 0 W/m 1,0 C -0,2 C 20,9 km/h (4 Bft) 97,37 %
11.12.2015 22:45 3,9 C 82 % 1028,4 hPa 0,0 l/m 11,6 km/h (2 Bft) SW 232 0 min 0,000 mm 0,0 UV-I 0 W/m 1,1 C -0,3 C 17,7 km/h (3 Bft) 98,74 %
11.12.2015 22:50 3,9 C 81 % 1028,2 hPa 0,0 l/m 11,7 km/h (2 Bft) S-SW 196 0 min 0,000 mm 0,0 UV-I 0 W/m 0,9 C -0,3 C 19,3 km/h (3 Bft) 100,00 %
11.12.2015 22:55 4,0 C 81 % 1028,2 hPa 0,0 l/m 11,4 km/h (2 Bft) SW 227 0 min 0,000 mm 0,0 UV-I 0 W/m 1,0 C -0,0 C 17,7 km/h (3 Bft) 99,06 %
11.12.2015 23:00 3,9 C 81 % 1028,3 hPa 0,0 l/m 10,9 km/h (2 Bft) W-SW 255 0 min 0,025 mm 0,0 UV-I 0 W/m 0,9 C 0,2 C 16,1 km/h (3 Bft) 100,00 %
11.12.2015 23:05 3,7 C 82 % 1028,2 hPa 0,0 l/m 9,7 km/h (2 Bft) W-SW 247 0 min 0,000 mm 0,0 UV-I 0 W/m 0,9 C 0,9 C 14,5 km/h (3 Bft) 97,37 %
11.12.2015 23:10 3,5 C 82 % 1028,2 hPa 0,0 l/m 9,7 km/h (2 Bft) SW 225 0 min 0,000 mm 0,0 UV-I 0 W/m 0,7 C 0,6 C 14,5 km/h (3 Bft) 98,25 %
11.12.2015 23:15 3,4 C 83 % 1028,3 hPa 0,0 l/m 8,0 km/h (2 Bft) W-SW 247 0 min 0,000 mm 0,0 UV-I 0 W/m 0,8 C 1,9 C 14,5 km/h (3 Bft) 100,00 %
11.12.2015 23:20 3,2 C 84 % 1028,3 hPa 0,0 l/m 8,0 km/h (2 Bft) SW 225 0 min 0,000 mm 0,0 UV-I 0 W/m 0,8 C 1,7 C 11,3 km/h (2 Bft) 100,00 %
11.12.2015 23:25 3,2 C 84 % 1028,3 hPa 0,0 l/m 9,7 km/h (2 Bft) SW 225 0 min 0,000 mm 0,0 UV-I 0 W/m 0,8 C 0,3 C 14,5 km/h (3 Bft) 100,00 %
11.12.2015 23:30 3,3 C 83 % 1028,1 hPa 0,0 l/m 9,7 km/h (2 Bft) SW 225 0 min 0,000 mm 0,0 UV-I 0 W/m 0,7 C 0,4 C 14,5 km/h (3 Bft) 100,00 %
11.12.2015 23:35 3,3 C 83 % 1028,0 hPa 0,0 l/m 8,0 km/h (2 Bft) SW 225 0 min 0,000 mm 0,0 UV-I 0 W/m 0,7 C 1,8 C 14,5 km/h (3 Bft) 100,00 %
11.12.2015 23:40 3,4 C 83 % 1027,9 hPa 0,0 l/m 9,7 km/h (2 Bft) S-SW 202 0 min 0,000 mm 0,0 UV-I 0 W/m 0,8 C 0,5 C 16,1 km/h (3 Bft) 99,12 %
11.12.2015 23:45 3,6 C 82 % 1027,8 hPa 0,0 l/m 9,7 km/h (2 Bft) S-SW 202 0 min 0,000 mm 0,0 UV-I 0 W/m 0,8 C 0,8 C 16,1 km/h (3 Bft) 100,00 %
11.12.2015 23:50 3,6 C 82 % 1027,7 hPa 0,0 l/m 11,3 km/h (2 Bft) S-SW 202 0 min 0,000 mm 0,0 UV-I 0 W/m 0,8 C -0,4 C 16,1 km/h (3 Bft) 100,00 %
11.12.2015 23:55 3,7 C 81 % 1027,8 hPa 0,0 l/m 11,3 km/h (2 Bft) S-SW 202 0 min 0,000 mm 0,0 UV-I 0 W/m 0,7 C -0,3 C 19,3 km/h (3 Bft) 100,00 %
_ Min-Zeit 10:00 22:50 23:50 - 01:15 - - - - - - 07:35 20:25 01:15 01:45
Minimum _ -1,6 C 81 % 1027,7 hPa - 0,0 km/h (0 Bft) - - - - - - -2,1 C -3,1 C 0,0 km/h (0 Bft) 93,69 %
_ Max-Zeit 22:50 10:20 00:00 00:00 22:50 - - 11:10 12:00 11:55 11:55 22:45 22:35 22:40 00:00
Maximum _ 4,0 C 98 % 1033,2 hPa 0,0 l/m 11,7 km/h
S-SW (2 Bft)
- - 5 min 0,051 mm 0,5 UV-I 198 W/m 1,1 C 2,3 C 20,9 km/h
SW (4 Bft)
100,00 %
Durchschnitt _ 0,3 C 94 % 1030,6 hPa #0,0 l/m 3,1 km/h (1 Bft) S-SW - #45 min. #0,254 mm 0,4 UV-I 87 W/m -0,5 C 0,0 C 6,4 km/h (2 Bft) 98,43 %